Location: Caltech
(34.1382°N, 118.1253°W)
Time: 01:24:55
(UTC-07:00)

Cosmos 1833 - Visible Passes

Search period start: 02 October 2014 00:00
Search period end: 12 October 2014 00:00
Orbit: 842 x 857 km, 70.9° (Epoch: 01 October)

Date Brightness Start Highest point End Pass type
(mag) Time Alt. Az. Time Alt. Az. Time Alt. Az.
02 Oct 7.1 19:05:28 10° NW 19:09:23 19° W 19:13:19 10° SW visible
03 Oct 7.2 18:52:47 10° NW 18:56:45 20° W 19:00:42 10° SW visible
04 Oct 7.1 06:13:44 10° SSE 06:17:52 21° E 06:22:00 10° NE visible
05 Oct 7.0 06:01:06 10° SSE 06:05:13 21° E 06:09:20 10° NE visible
06 Oct 7.0 05:48:29 10° SSE 05:52:34 21° E 05:56:40 10° NE visible
07 Oct 6.9 05:35:51 10° SSE 05:39:55 21° E 05:43:59 10° NE visible
08 Oct 6.8 05:23:13 10° SSE 05:27:16 21° E 05:31:19 10° NE visible
09 Oct 6.8 05:10:35 10° SE 05:14:36 20° E 05:18:38 10° NE visible
10 Oct 6.7 04:57:58 10° SE 05:01:57 20° E 05:05:58 10° NE visible
11 Oct 6.7 04:45:20 10° SE 04:49:18 20° E 04:53:17 10° NE visible
